Weather History for North Island, CA

Change the Weather History Date:

Thursday, January 30, 2014

  Actual Average Record
Temperature  
Mean Temperature 63 °F -  
Max Temperature 66 °F 61 °F 80 °F (2009)
Min Temperature 60 °F 48 °F 41 °F (2002)
Degree Days  
Heating Degree Days 2    
Growing Degree Days 13 (Base 50)    
Moisture  
Dew Point 54 °F    
Average Humidity 72    
Maximum Humidity 75    
Minimum Humidity 63    
Precipitation  
Precipitation 0.00 in - - ()
Sea Level Pressure  
Sea Level Pressure 29.94 in    
Wind  
Wind Speed 7 mph (South)    
Max Wind Speed 14 mph    
Max Gust Speed -    
Visibility 7 miles    
Events Rain    
Averages and records for this station are not official NWS values.
T = Trace of Precipitation, MM = Missing Value Source: NWS Daily Summary

Daily Weather History Graph

Daily Weather History Graph

Search for Another Location

Airport:

Trip Planner

Search our weather history database for the weather conditions in past years. The results will help you decide how hot, cold, wet, or windy it might be!

Date:

Astronomy

Jan. 30, 2014 Rise Set
Actual Time 6:44 AM PST 5:19 PM PST
Civil Twilight 6:18 AM PST 5:45 PM PST
Nautical Twilight 5:49 AM PST 6:15 PM PST
Astronomical Twilight 5:20 AM PST 6:44 PM PST
Moon 6:16 AM PST (1/30) 5:33 PM PST (1/30)
Length of Visible Light 11h 26m
Length of Day
10h 35m
Waning Crescent, 0% of the Moon is Illuminated
Jan 30
Waning Crescent
Jan 30
New
Feb 6
First Quarter
Feb 14
Full
Feb 22
Last Quarter

Hourly Weather History & Observations

Time (PST) Temp. Dew Point Humidity Pressure Visibility Wind Dir Wind Speed Gust Speed Precip Events Conditions
12:52 AM 60.1 °F 52.0 °F 75% 29.97 in 4.0 mi SSE 5.8 mph - N/A   Haze
1:52 AM 60.1 °F 52.0 °F 75% 29.96 in 4.0 mi SE 4.6 mph - N/A   Haze
2:52 AM 61.0 °F 53.1 °F 75% 29.96 in 5.0 mi SE 4.6 mph - N/A   Overcast
3:52 AM 61.0 °F 53.1 °F 75% 29.94 in 5.0 mi ESE 8.1 mph - N/A   Overcast
4:52 AM 61.0 °F 52.0 °F 72% 29.94 in 5.0 mi East 5.8 mph - N/A   Haze
5:52 AM 60.1 °F 51.1 °F 72% 29.94 in 6.0 mi East 5.8 mph - N/A   Haze
6:52 AM 60.1 °F 51.1 °F 72% 29.94 in 4.0 mi ESE 5.8 mph - N/A   Haze
7:39 AM 60.1 °F 51.1 °F 72% 29.95 in 2.0 mi ESE 6.9 mph - N/A   Haze
7:52 AM 61.0 °F 52.0 °F 72% 29.95 in 2.0 mi ESE 5.8 mph - N/A   Haze
8:52 AM 61.0 °F 51.1 °F 70% 29.95 in 2.5 mi ESE 9.2 mph - N/A   Haze
9:42 AM 64.9 °F 53.1 °F 65% 29.97 in 3.0 mi South 10.4 mph - N/A   Haze
9:52 AM 64.9 °F 52.0 °F 63% 29.97 in 7.0 mi South 10.4 mph - N/A   Mostly Cloudy
10:52 AM 64.0 °F 53.1 °F 67% 29.97 in 7.0 mi South 13.8 mph - N/A   Overcast
11:52 AM 64.0 °F 54.0 °F 70% 29.96 in 5.0 mi South 10.4 mph - 0.00 in Rain Light Rain
12:22 PM 64.0 °F 55.9 °F 75% 29.94 in 4.0 mi WSW 9.2 mph - 0.00 in Rain Light Rain
12:31 PM 64.0 °F 55.9 °F 75% 29.95 in 9.0 mi WSW 9.2 mph - 0.00 in   Overcast
12:52 PM 66.0 °F 57.0 °F 73% 29.93 in 10.0 mi SW 8.1 mph - 0.00 in   Overcast
1:52 PM 66.0 °F 55.9 °F 70% 29.90 in 10.0 mi South 10.4 mph - N/A   Overcast
2:52 PM 64.9 °F 55.9 °F 73% 29.90 in 7.0 mi South 9.2 mph - 0.00 in   Light Drizzle
3:22 PM 64.9 °F 55.9 °F 73% 29.90 in 8.0 mi South 9.2 mph - 0.00 in   Mostly Cloudy
3:52 PM 64.9 °F 55.9 °F 73% 29.90 in 9.0 mi South 10.4 mph - 0.00 in   Mostly Cloudy
4:52 PM 64.0 °F 55.9 °F 75% 29.91 in 10.0 mi South 10.4 mph - N/A   Mostly Cloudy
5:52 PM 64.9 °F 55.9 °F 73% 29.91 in 10.0 mi SSW 9.2 mph - N/A   Overcast
6:52 PM 64.9 °F 55.9 °F 73% 29.91 in 10.0 mi South 6.9 mph - N/A   Overcast
7:52 PM 64.9 °F 55.0 °F 70% 29.93 in 10.0 mi SW 5.8 mph - N/A   Overcast
8:52 PM 64.9 °F 55.9 °F 73% 29.92 in 10.0 mi SSW 5.8 mph - N/A   Mostly Cloudy
9:52 PM 64.9 °F 55.0 °F 70% 29.93 in 10.0 mi SW 4.6 mph - N/A   Overcast
10:32 PM 64.0 °F 55.9 °F 75% 29.93 in 8.0 mi West 8.1 mph - 0.00 in Rain Light Rain
10:52 PM 64.0 °F 55.9 °F 75% 29.92 in 9.0 mi West 8.1 mph - 0.00 in   Overcast
11:52 PM 64.0 °F 55.0 °F 73% 29.93 in 10.0 mi West 13.8 mph - N/A   Mostly Cloudy